Regional Weather Roundup
Issued by NWS

Home | Current Version | Previous Version | Graphics & Text | Print | Product List | Glossary On
Versions: 1 2 3 4 5 6 7 8 9 10 11 12 13 14 15 16 17 18 19 20 21 22 23 24 25 26 27
000
ASUS45 KCYS 261010
RWRWY

WYOMING REGIONAL WEATHER ROUNDUP
NATIONAL WEATHER SERVICE CHEYENNE WY
400 AM MDT MON JUN 26 2017

NOTE:  "FAIR" INDICATES FEW OR NO CLOUDS BELOW 12,000 FEET
WITH NO SIGNIFICANT WEATHER AND/OR OBSTRUCTIONS TO VISIBILITY.

WYZ001-261100-
YELLOWSTONE NATIONAL PARK

CITY           SKY/WX    TMP DP  RH WIND       PRES   REMARKS
LK YELLOWSTONE   N/A     37  34  89 CALM      30.43F
W YELLOWSTONE  NOT AVBL

$$
WYZ002>013-054>058-071-098>099-261100-
NORTHERN WYOMING

CITY           SKY/WX    TMP DP  RH WIND       PRES   REMARKS
JACKSON        FAIR      46  39  76 CALM      30.34S
CODY           FAIR      52  37  56 CALM      30.24S
GREYBULL       FAIR      55  37  50 SE3       30.19F
WORLAND        FAIR      50  37  61 S8        30.20S
SHERIDAN       FAIR      47  39  74 CALM      30.19S
BUFFALO        FAIR      57  34  41 S6        30.24F
GILLETTE       FAIR      50  32  50 S6        30.23F
NEWCASTLE      FAIR      46  30  53 NW7       30.27S

$$
WYZ014>020-022>026-101>103-261100-
CENTRAL WYOMING

CITY           SKY/WX    TMP DP  RH WIND       PRES   REMARKS
BIG PINEY      FAIR      44  37  76 N7        30.38S
PINEDALE       FAIR      43  41  93 NW6       30.39S
DUBOIS         FAIR      45  34  65 NW8       30.40S
LANDER         FAIR      55  33  43 W10       30.29F
RIVERTON       FAIR      56  37  49 CALM      30.29F
CASPER         FAIR      43  38  82 W3        30.29F
DOUGLAS        FAIR      45  36  70 S3        30.29F

$$
WYZ021-027>030-104>119-261100-
SOUTHERN WYOMING

CITY           SKY/WX    TMP DP  RH WIND       PRES   REMARKS
EVANSTON       FAIR      56  32  40 SW3       30.34S
KEMMERER         N/A     54  32  43 N14       30.36S
FORT BRIDGER   FAIR      52  32  46 NW9       30.36F
ROCK SPRINGS   FAIR      54  25  32 E8        30.33F
DIXON          FAIR      48  29  48 CALM      30.35S
RAWLINS        FAIR      43  32  65 CALM      30.35S
SARATOGA       FAIR      43  30  61 SW3       30.37R
LARAMIE        FAIR      44  41  89 S7        30.36F
CHEYENNE       FAIR      53  50  89 W7        30.31F
TORRINGTON     FAIR      51  45  79 N8        30.22S
PINE BLUFFS    FAIR      48  48 100 S3        30.28F

$$




USA.gov is the U.S. government's official web portal to all federal, state and local government web resources and services.